Location: Central Falls
(41.8900°N, 71.3929°W)
Time: 16:43:50
(UTC+00:00)

Vanguard 1 Rocket - Pass Details

Date: 10 December 2023
Orbit: 654 x 4218 km, 34.3° (Epoch: 25 February)

Event Time Altitude Azimuth Distance (km) Brightness Sun altitude
Rises 05:30:39 0° 201° (SSW) 8,017 - -68.1°
Reaches altitude 10° 05:37:13 10° 191° (SSW) 7,259 - -67.3°
Maximum altitude 05:57:25 31° 140° (SE) 5,654 - -64.8°
Exits shadow 05:58:53 30° 135° (SE) 5,616 11.2 -64.6°
Drops below altitude 10° 06:14:26 10° 89° (E) 6,235 11.8 -62.4°
Sets 06:19:18 0° 80° (E) 6,806 12.2 -61.6°
